TimeEDT,TemperatureF,Dew PointF,Humidity,Sea Level PressureIn,VisibilityMPH,Wind Direction,Wind SpeedMPH,Gust SpeedMPH,PrecipitationIn,Events,Conditions,WindDirDegrees,DateUTC
12:53 AM,60.1,54.0,80,30.09,10.0,NE,8.1,-,N/A,,Scattered Clouds,40,2012-10-08 04:53:00
1:34 AM,60.8,53.6,77,30.09,10.0,NE,10.4,-,N/A,,Overcast,40,2012-10-08 05:34:00
1:53 AM,60.1,53.1,78,30.09,10.0,NNE,10.4,-,N/A,,Overcast,30,2012-10-08 05:53:00
2:53 AM,60.1,51.1,72,30.09,10.0,NE,9.2,-,N/A,,Overcast,50,2012-10-08 06:53:00
3:53 AM,59.0,50.0,72,30.05,10.0,NNE,12.7,-,N/A,,Overcast,30,2012-10-08 07:53:00
4:53 AM,59.0,50.0,72,30.07,10.0,NE,10.4,-,N/A,,Overcast,50,2012-10-08 08:53:00
5:53 AM,59.0,50.0,72,30.08,10.0,NE,5.8,-,N/A,,Overcast,50,2012-10-08 09:53:00
6:53 AM,57.9,51.1,78,30.08,10.0,NE,9.2,-,N/A,,Overcast,40,2012-10-08 10:53:00
7:53 AM,57.9,50.0,75,30.12,10.0,NE,10.4,-,N/A,,Overcast,40,2012-10-08 11:53:00
8:53 AM,57.9,50.0,75,30.12,10.0,NNE,10.4,-,N/A,,Overcast,30,2012-10-08 12:53:00
9:53 AM,59.0,50.0,72,30.12,10.0,NE,11.5,-,N/A,,Overcast,40,2012-10-08 13:53:00
10:53 AM,59.0,51.1,75,30.13,10.0,NNE,9.2,-,N/A,,Overcast,30,2012-10-08 14:53:00
11:53 AM,59.0,51.1,75,30.13,10.0,NE,8.1,-,N/A,,Overcast,40,2012-10-08 15:53:00
12:48 PM,57.2,53.6,88,30.11,10.0,NNE,10.4,-,0.01,Rain,Light Rain,20,2012-10-08 16:48:00
12:53 PM,57.9,53.1,84,30.11,10.0,North,6.9,-,0.01,Rain,Light Rain,10,2012-10-08 16:53:00
1:02 PM,57.2,53.6,88,30.12,1.8,NNW,6.9,-,0.10,Rain,Heavy Rain,340,2012-10-08 17:02:00
1:06 PM,57.2,53.6,88,30.12,0.8,Variable,4.6,-,0.21,Rain,Heavy Rain,0,2012-10-08 17:06:00
1:18 PM,55.4,53.6,94,30.12,0.8,North,4.6,-,0.47,Rain,Heavy Rain,360,2012-10-08 17:18:00
1:29 PM,55.4,53.6,94,30.11,2.0,North,4.6,-,0.50,Rain,Rain,10,2012-10-08 17:29:00
1:34 PM,55.4,53.6,94,30.11,4.0,North,5.8,-,0.51,Rain,Rain,360,2012-10-08 17:34:00
1:50 PM,57.2,53.6,88,30.10,10.0,North,6.9,-,0.51,Rain,Light Rain,360,2012-10-08 17:50:00
1:53 PM,57.0,54.0,89,30.10,10.0,NNE,9.2,-,0.51,,Overcast,20,2012-10-08 17:53:00
2:53 PM,55.9,52.0,87,30.08,10.0,NNE,8.1,-,0.00,Rain,Light Rain,30,2012-10-08 18:53:00
3:04 PM,55.4,51.8,88,30.08,10.0,NNE,9.2,-,0.00,Rain,Light Rain,30,2012-10-08 19:04:00
3:53 PM,55.9,53.1,90,30.08,10.0,NNE,9.2,-,0.09,Rain,Light Rain,30,2012-10-08 19:53:00
4:05 PM,55.4,53.6,94,30.08,10.0,NNE,6.9,-,0.00,Rain,Light Rain,30,2012-10-08 20:05:00
4:53 PM,55.9,52.0,87,30.08,10.0,NNE,10.4,-,0.00,,Overcast,30,2012-10-08 20:53:00
5:41 PM,55.4,51.8,88,30.09,10.0,NNE,12.7,17.3,N/A,,Overcast,30,2012-10-08 21:41:00
5:53 PM,55.9,52.0,87,30.09,10.0,NNE,6.9,-,N/A,,Overcast,30,2012-10-08 21:53:00
6:53 PM,55.0,52.0,89,30.11,10.0,NNE,5.8,-,N/A,,Overcast,20,2012-10-08 22:53:00
7:53 PM,54.0,52.0,93,30.11,5.0,NNE,8.1,-,N/A,,Overcast,20,2012-10-08 23:53:00
8:53 PM,54.0,51.1,90,30.12,8.0,NNE,6.9,-,N/A,,Overcast,30,2012-10-09 00:53:00
9:45 PM,53.6,50.0,88,30.13,10.0,NNE,9.2,-,N/A,,Overcast,30,2012-10-09 01:45:00
10:53 PM,54.0,50.0,86,30.13,10.0,NNE,9.2,-,N/A,,Overcast,20,2012-10-09 02:53:00
11:02 PM,53.6,50.0,88,30.13,10.0,NNE,9.2,-,N/A,,Overcast,30,2012-10-09 03:02:00
11:53 PM,53.1,50.0,89,30.14,8.0,NNE,9.2,-,N/A,,Overcast,20,2012-10-09 03:53:00